WN8IZV Weather Reports


Display with metric or nautical units.
time (UTC)temp
F
wind
direction
speed
MPH
gust
MPH
rain 1hr
in
rain 24hr
in
rain mn
in
humidity
%
barometer
mb
20260906183053 78 57 0.0 4.0 0.00 0.00 0.00 82 1018.7
20260906181629 78 321 1.0 8.0 0.00 0.00 0.00 82 1018.8
20260906180049 76 2 2.0 7.0 0.00 0.00 0.00 82 1018.9
20260906174549 76 26 3.0 8.0 0.00 0.00 0.00 82 1019.1
20260906173043 79 269 2.0 6.0 0.00 0.00 0.00 82 1019.1
20260906171549 78 1 2.0 7.0 0.00 0.00 0.00 82 1019.2
20260906170040 78 67 2.0 8.0 0.00 0.00 0.00 82 1019.2
20260906164539 76 328 2.0 8.0 0.00 0.00 0.00 82 1019.2
20260906163034 78 354 4.0 11.0 0.00 0.00 0.00 82 1019.3
20260906161528 78 30 2.0 7.0 0.00 0.00 0.00 82 1019.3
20260906160023 77 316 1.0 6.0 0.00 0.00 0.00 82 1019.3
20260906154535 77 355 1.0 6.0 0.00 0.00 0.00 82 1019.3
20260906153020 75 309 3.0 8.0 0.00 0.00 0.00 81 1019.2
20260906151511 75 72 0.0 5.0 0.00 0.00 0.00 81 1019.2
20260906150007 74 64 2.0 8.0 0.00 0.00 0.00 81 1019.2
20260906144502 73 350 1.0 7.0 0.00 0.00 0.00 81 1019.2
20260906143110 72 319 3.0 8.0 0.00 0.00 0.00 81 1019.1
20260906141554 71 1 2.0 6.0 0.00 0.00 0.00 81 1019.1
20260906140048 69 348 3.0 6.0 0.00 0.00 0.00 81 1018.9
20260906134545 68 341 2.0 6.0 0.00 0.00 0.00 80 1018.9
20260906133039 67 4 2.0 6.0 0.00 0.00 0.00 80 1018.8
20260906131538 65 304 1.0 7.0 0.00 0.00 0.00 80 1018.8
20260906130027 64 2 2.0 4.0 0.00 0.00 0.00 80 1018.8
20260906124522 63 15 1.0 4.0 0.00 0.00 0.00 80 1018.8
20260906123017 62 58 0.0 4.0 0.00 0.00 0.00 80 1018.7
20260906121514 61 18 1.0 3.0 0.00 0.00 0.00 79 1018.5
20260906120011 60 345 1.0 4.0 0.00 0.00 0.00 79 1018.5
20260906114523 59 16 0.0 3.0 0.00 0.00 0.00 79 1018.2
20260906113007 59 340 0.0 1.0 0.00 0.00 0.00 79 1017.9
20260906111502 59 320 0.0 3.0 0.00 0.00 0.00 79 1017.9
20260906110100 59 328 0.0 3.0 0.00 0.00 0.00 79 1017.9
20260906104602 59 350 0.0 2.0 0.00 0.00 0.00 79 1017.6
20260906103053 59 332 0.0 3.0 0.00 0.00 0.00 79 1017.6
20260906101551 59 342 0.0 4.0 0.00 0.00 0.00 79 1017.4
20260906100049 59 349 1.0 4.0 0.00 0.00 0.00 79 1017.4
20260906094601 59 27 0.0 4.0 0.00 0.00 0.00 79 1017.4
20260906093110 59 3 0.0 3.0 0.00 0.00 0.00 79 1017.4
20260906091541 59 26 1.0 3.0 0.00 0.00 0.00 79 1017.3
20260906090038 59 336 0.0 4.0 0.00 0.00 0.00 79 1017.1
20260906084538 59 8 1.0 5.0 0.00 0.00 0.00 79 1017.1
20260906083044 60 327 1.0 3.0 0.00 0.00 0.00 79 1017.0
20260906081537 60 16 0.0 4.0 0.00 0.00 0.00 79 1017.0
20260906080037 60 352 1.0 3.0 0.00 0.00 0.00 79 1017.0
20260906074531 60 349 0.0 2.0 0.00 0.00 0.00 79 1016.8
20260906073027 60 359 0.0 4.0 0.00 0.00 0.00 79 1016.8
20260906071523 60 323 1.0 4.0 0.00 0.00 0.00 79 1016.6
20260906070022 60 330 0.0 4.0 0.00 0.00 0.00 80 1016.5
20260906064516 60 14 1.0 5.0 0.00 0.00 0.00 80 1016.4
20260906063018 60 335 2.0 5.0 0.00 0.00 0.00 80 1016.6
20260906061512 61 13 1.0 4.0 0.00 0.00 0.00 80 1016.6
20260906060008 61 354 1.0 4.0 0.00 0.00 0.00 80 1016.5
20260906054506 61 338 1.0 7.0 0.00 0.00 0.00 80 1016.3
20260906053002 61 356 0.0 3.0 0.00 0.00 0.00 80 1016.6
20260906051607 62 356 0.0 3.0 0.00 0.00 0.00 80 1016.7
20260906050105 62 354 1.0 4.0 0.00 0.00 0.00 80 1016.6
20260906044559 62 356 0.0 2.0 0.00 0.00 0.00 80 1016.5
20260906043050 62 349 0.0 2.0 0.00 0.00 0.00 80 1016.5
20260906041547 62 357 0.0 3.0 0.00 0.00 0.00 80 1016.4
20260906040047 63 354 0.0 2.0 0.00 0.00 0.00 80 1016.5
20260906034540 63 6 0.0 2.0 0.00 0.00 0.00 80 1016.5
20260906033045 63 345 0.0 1.0 0.00 0.00 0.00 80 1016.3
20260906031539 63 9 0.0 2.0 0.00 0.00 0.00 80 1016.1
20260906030033 64 359 0.0 3.0 0.00 0.00 0.00 81 1016.4
20260906024541 64 11 0.0 3.0 0.00 0.00 0.00 81 1016.4
20260906023026 64 356 0.0 4.0 0.00 0.00 0.00 81 1016.5
20260906021523 65 20 0.0 6.0 0.00 0.00 0.00 81 1016.6
20260906020019 65 306 0.0 1.0 0.00 0.00 0.00 81 1016.4
20260906014524 66 57 0.0 6.0 0.00 0.00 0.00 81 1016.3
20260906013033 66 338 0.0 4.0 0.00 0.00 0.00 81 1016.3
20260906011509 67 240 0.0 4.0 0.00 0.00 0.00 81 1016.1
20260906010006 68 297 0.0 3.0 0.00 0.00 0.00 82 1015.8
20260906004504 68 65 0.0 5.0 0.00 0.00 0.00 82 1015.7
20260906003114 69 323 0.0 4.0 0.00 0.00 0.00 82 1015.5
20260906001658 70 238 1.0 5.0 0.00 0.00 0.00 82 1015.6
20260906000055 71 16 1.0 5.0 0.00 0.00 0.00 82 1015.4
20260905234554 72 13 1.0 4.0 0.00 0.00 0.00 83 1015.4
20260905233049 74 268 0.0 4.0 0.00 0.00 0.00 83 1015.3
20260905231546 75 339 1.0 5.0 0.00 0.00 0.00 83 1015.2
20260905230044 75 304 1.0 5.0 0.00 0.00 0.00 83 1015.1
20260905224641 75 13 1.0 5.0 0.00 0.00 0.00 83 1015.0
20260905223038 76 49 1.0 8.0 0.00 0.00 0.00 83 1014.9
20260905221549 76 60 1.0 6.0 0.00 0.00 0.00 84 1014.8
20260905220033 77 37 1.0 12.0 0.00 0.00 0.00 84 1014.6
20260905214532 78 347 4.0 10.0 0.00 0.00 0.00 84 1014.7
20260905213029 80 46 2.0 6.0 0.00 0.00 0.00 84 1014.5
20260905211536 79 153 1.0 8.0 0.00 0.00 0.00 84 1014.5
20260905210024 81 323 0.0 5.0 0.00 0.00 0.00 85 1014.5
20260905204527 80 212 3.0 10.0 0.00 0.00 0.00 85 1014.3
20260905203019 81 337 2.0 7.0 0.00 0.00 0.00 85 1014.4
20260905201517 80 327 2.0 5.0 0.00 0.00 0.00 85 1014.5
20260905200019 81 53 1.0 10.0 0.00 0.00 0.00 85 1014.3
20260905194513 82 20 0.0 4.0 0.00 0.00 0.00 85 1014.4
20260905193010 82 80 0.0 6.0 0.00 0.00 0.00 85 1014.5
20260905191607 82 48 1.0 3.0 0.00 0.00 0.00 85 1014.5
20260905190005 81 310 1.0 5.0 0.00 0.00 0.00 86 1014.8
20260905184504 81 57 1.0 3.0 0.00 0.00 0.00 86 1014.8